TimeCST,TemperatureF,Dew PointF,Humidity,Sea Level PressureIn,VisibilityMPH,Wind Direction,Wind SpeedMPH,Gust SpeedMPH,PrecipitationIn,Events,Conditions,WindDirDegrees,DateUTC
12:15 AM,12.2,6.3,77,30.22,10.0,SW,6.9,-,N/A,,Clear,230,2013-01-15 06:15:00
12:35 AM,11.5,5.7,78,30.22,10.0,SW,8.1,-,N/A,,Clear,230,2013-01-15 06:35:00
12:56 AM,11.7,5.7,77,30.21,10.0,SSW,8.1,-,N/A,,Clear,210,2013-01-15 06:56:00
1:15 AM,11.3,5.5,78,30.21,10.0,SW,9.2,-,N/A,,Clear,230,2013-01-15 07:15:00
1:36 AM,10.4,5.0,79,30.21,10.0,SW,6.9,-,N/A,,Clear,230,2013-01-15 07:36:00
1:55 AM,11.1,5.5,78,30.21,10.0,SW,4.6,-,N/A,,Clear,230,2013-01-15 07:55:00
2:16 AM,10.8,5.2,78,30.21,10.0,SW,8.1,-,N/A,,Clear,220,2013-01-15 08:16:00
2:36 AM,10.9,5.2,78,30.21,10.0,SW,8.1,-,N/A,,Scattered Clouds,220,2013-01-15 08:36:00
2:46 AM,10.9,5.2,78,30.20,10.0,SW,6.9,-,N/A,,Clear,230,2013-01-15 08:46:00
3:16 AM,10.9,5.5,79,30.19,10.0,SSW,9.2,-,N/A,,Clear,210,2013-01-15 09:16:00
3:36 AM,10.9,5.7,79,30.18,10.0,SSW,8.1,-,N/A,,Scattered Clouds,210,2013-01-15 09:36:00
3:50 AM,11.8,6.3,78,30.18,10.0,SSW,6.9,-,N/A,,Scattered Clouds,210,2013-01-15 09:50:00
4:16 AM,12.0,7.0,80,30.17,10.0,SW,8.1,-,N/A,,Scattered Clouds,220,2013-01-15 10:16:00
4:55 AM,12.2,6.1,76,30.15,10.0,SW,12.7,-,N/A,,Scattered Clouds,220,2013-01-15 10:55:00
5:15 AM,12.7,6.1,75,30.15,10.0,SW,11.5,-,N/A,,Mostly Cloudy,230,2013-01-15 11:15:00
5:36 AM,12.0,5.9,76,30.14,10.0,SW,13.8,18.4,N/A,,Overcast,220,2013-01-15 11:36:00
6:16 AM,12.9,5.2,71,30.13,10.0,SSW,16.1,21.9,N/A,,Clear,210,2013-01-15 12:16:00
6:36 AM,12.6,5.0,72,30.12,10.0,SSW,16.1,24.2,N/A,,Clear,210,2013-01-15 12:36:00
6:55 AM,12.2,4.8,72,30.12,10.0,SW,13.8,20.7,N/A,,Clear,220,2013-01-15 12:55:00
7:16 AM,11.7,4.6,73,30.13,10.0,SW,12.7,20.7,N/A,,Clear,220,2013-01-15 13:16:00
7:35 AM,11.3,4.8,75,30.13,10.0,SW,12.7,19.6,N/A,,Clear,220,2013-01-15 13:35:00
7:56 AM,11.3,4.8,75,30.13,10.0,SW,17.3,20.7,N/A,,Clear,220,2013-01-15 13:56:00
8:15 AM,12.2,5.0,73,30.13,10.0,SSW,15.0,19.6,N/A,,Clear,210,2013-01-15 14:15:00
8:36 AM,12.2,4.8,72,30.13,10.0,SSW,16.1,21.9,N/A,,Clear,210,2013-01-15 14:36:00
8:55 AM,13.1,5.0,70,30.12,10.0,SSW,13.8,20.7,N/A,,Clear,210,2013-01-15 14:55:00
9:15 AM,13.6,5.0,68,30.12,10.0,SSW,13.8,18.4,N/A,,Clear,210,2013-01-15 15:15:00
9:36 AM,14.2,5.2,67,30.12,10.0,SW,15.0,23.0,N/A,,Clear,220,2013-01-15 15:36:00
9:55 AM,14.0,5.7,70,30.12,10.0,SW,17.3,23.0,N/A,,Clear,220,2013-01-15 15:55:00
10:15 AM,14.0,5.9,70,30.12,10.0,SW,18.4,23.0,N/A,,Clear,220,2013-01-15 16:15:00
10:35 AM,14.7,6.4,70,30.11,10.0,SSW,15.0,23.0,N/A,,Clear,210,2013-01-15 16:35:00
10:56 AM,16.0,7.0,68,30.11,10.0,SW,13.8,18.4,N/A,,Clear,220,2013-01-15 16:56:00
11:16 AM,17.2,7.7,66,30.10,10.0,SSW,11.5,19.6,N/A,,Clear,210,2013-01-15 17:16:00
11:36 AM,18.1,8.1,65,30.08,10.0,SSW,11.5,18.4,N/A,,Clear,210,2013-01-15 17:36:00
11:56 AM,18.5,8.2,64,30.07,10.0,SSW,13.8,19.6,N/A,,Clear,210,2013-01-15 17:56:00
12:15 PM,18.5,9.0,66,30.06,10.0,SSW,11.5,23.0,N/A,,Clear,210,2013-01-15 18:15:00
12:35 PM,19.4,9.5,65,30.05,10.0,SSW,15.0,20.7,N/A,,Clear,210,2013-01-15 18:35:00
12:56 PM,20.3,10.6,66,30.04,10.0,SW,9.2,-,N/A,,Clear,220,2013-01-15 18:56:00
1:16 PM,21.2,11.3,66,30.03,10.0,SSW,11.5,-,N/A,,Clear,210,2013-01-15 19:16:00
1:35 PM,22.1,11.5,64,30.02,10.0,SW,10.4,20.7,N/A,,Clear,220,2013-01-15 19:35:00
1:55 PM,22.3,11.8,64,30.00,10.0,SSW,17.3,25.3,N/A,,Clear,210,2013-01-15 19:55:00
2:15 PM,22.6,13.1,67,29.99,10.0,SSW,15.0,-,N/A,,Clear,210,2013-01-15 20:15:00
2:36 PM,23.5,14.0,67,29.99,10.0,SW,15.0,-,N/A,,Clear,220,2013-01-15 20:36:00
2:56 PM,23.5,14.0,67,29.99,10.0,SSW,12.7,19.6,N/A,,Clear,210,2013-01-15 20:56:00
3:15 PM,23.7,14.4,67,29.99,10.0,SSW,10.4,19.6,N/A,,Clear,210,2013-01-15 21:15:00
3:36 PM,23.9,14.0,66,29.98,10.0,South,4.6,18.4,N/A,,Clear,190,2013-01-15 21:36:00
3:55 PM,23.7,13.1,64,29.99,10.0,South,9.2,-,N/A,,Clear,190,2013-01-15 21:55:00
4:16 PM,23.4,13.1,65,29.98,10.0,South,8.1,-,N/A,,Clear,180,2013-01-15 22:16:00
4:36 PM,23.0,13.1,66,29.99,10.0,South,5.8,-,N/A,,Clear,180,2013-01-15 22:36:00
4:55 PM,23.0,12.7,65,29.98,10.0,South,3.5,-,N/A,,Clear,180,2013-01-15 22:55:00
5:15 PM,22.1,13.1,68,29.97,10.0,SSW,10.4,-,N/A,,Clear,210,2013-01-15 23:15:00
5:35 PM,22.5,12.7,66,29.96,10.0,SSW,8.1,-,N/A,,Clear,210,2013-01-15 23:35:00
5:56 PM,22.6,13.3,67,29.95,10.0,SSW,12.7,24.2,N/A,,Clear,210,2013-01-15 23:56:00
6:16 PM,22.5,13.5,68,29.94,10.0,SSW,18.4,25.3,N/A,,Clear,210,2013-01-16 00:16:00
6:36 PM,22.8,13.5,67,29.92,10.0,SSW,13.8,27.6,N/A,,Clear,210,2013-01-16 00:36:00
6:55 PM,23.0,13.1,66,29.92,10.0,SSW,11.5,23.0,N/A,,Clear,200,2013-01-16 00:55:00
7:16 PM,22.5,12.9,67,29.91,10.0,SSW,8.1,-,N/A,,Clear,200,2013-01-16 01:16:00
7:36 PM,22.8,12.4,64,29.91,10.0,South,4.6,-,N/A,,Clear,180,2013-01-16 01:36:00
7:55 PM,23.0,12.2,63,29.88,10.0,SSW,9.2,-,N/A,,Clear,210,2013-01-16 01:55:00
8:15 PM,22.8,12.2,64,29.85,10.0,SW,18.4,23.0,N/A,,Clear,220,2013-01-16 02:15:00
8:36 PM,23.5,12.2,62,29.84,10.0,SSW,13.8,23.0,N/A,,Clear,210,2013-01-16 02:36:00
8:56 PM,23.9,11.8,60,29.83,10.0,SW,19.6,28.8,N/A,,Clear,220,2013-01-16 02:56:00
9:15 PM,24.1,11.1,58,29.80,10.0,SSW,23.0,31.1,N/A,,Clear,210,2013-01-16 03:15:00
9:35 PM,24.6,11.7,58,29.80,10.0,SSW,13.8,27.6,N/A,,Scattered Clouds,210,2013-01-16 03:35:00
9:55 PM,26.2,12.9,57,29.78,10.0,SW,21.9,27.6,N/A,,Scattered Clouds,230,2013-01-16 03:55:00
10:16 PM,27.9,14.0,56,29.76,10.0,SW,27.6,38.0,N/A,,Overcast,220,2013-01-16 04:16:00
10:35 PM,26.6,14.7,61,29.76,10.0,SSW,16.1,21.9,N/A,,Overcast,210,2013-01-16 04:35:00
10:55 PM,27.5,16.7,64,29.75,10.0,SW,18.4,25.3,N/A,,Overcast,220,2013-01-16 04:55:00
11:16 PM,27.9,17.8,66,29.74,10.0,SW,20.7,28.8,N/A,,Overcast,220,2013-01-16 05:16:00
11:35 PM,28.0,18.5,67,29.74,10.0,SSW,16.1,23.0,N/A,,Overcast,210,2013-01-16 05:35:00